QPF
0.00 0.00 0.00 0.00 0.00 0.00 0.00 0.00 0.00 0.00 0.00 0.00 0.00 0.00 0.00 0.01 0.02 0.04 0.07 0.11 0.15 0.19 0.20 0.17 0.14 0.11 0.06 0.04 0.03 0.03 0.04 0.04 0.04 0.03 0.02 0.01 0.00 0.00 0.00 0.00 0.00 0.00 0.00 0.00
0.00 0.00 0.00 0.00 0.00 0.00 0.00 0.00 0.00 0.00 0.00 0.00 0.00 0.00 0.00 0.02 0.03 0.05 0.09 0.11 0.12 0.14 0.13 0.12 0.10 0.06 0.04 0.02 0.02 0.02 0.02 0.03 0.03 0.03 0.02 0.01 0.00 0.00 0.00 0.00 0.00 0.00 0.00 0.00
0.00 0.00 0.00 0.00 0.00 0.00 0.00 0.00 0.00 0.00 0.00 0.00 0.00 0.00 0.00 0.01 0.02 0.05 0.05 0.06 0.06 0.08 0.08 0.06 0.04 0.03 0.02 0.01 0.02 0.03 0.03 0.03 0.03 0.03 0.02 0.01 0.01 0.00 0.00 0.00 0.00 0.00 0.00 0.00
0.00 0.00 0.00 0.00 0.00 0.00 0.00 0.00 0.00 0.00 0.00 0.00 0.00 0.00 0.00 0.00 0.00 0.01 0.02 0.01 0.01 0.01 0.02 0.02 0.01 0.01 0.01 0.01 0.02 0.03 0.03 0.03 0.02 0.02 0.02 0.01 0.01 0.00 0.00 0.00 0.00 0.00 0.00 0.00
0.00 0.00 0.00 0.00 0.00 0.00 0.00 0.00 0.00 0.00 0.00 0.00 0.00 0.00 0.00 0.00 0.00 0.00 0.00 0.00 0.00 0.00 0.00 0.00 0.00 0.00 0.01 0.01 0.01 0.02 0.03 0.02 0.01 0.01 0.01 0.01 0.01 0.00 0.00 0.00 0.00 0.00 0.00 0.00
0.00 0.00 0.00 0.00 0.00 0.00 0.00 0.00 0.00 0.00 0.00 0.00 0.00 0.00 0.00 0.00 0.00 0.00 0.00 0.00 0.00 0.00 0.00 0.00 0.00 0.00 0.01 0.01 0.02 0.02 0.03 0.02 0.01 0.01 0.00 0.00 0.00 0.00 0.00 0.00 0.00 0.00 0.00 0.00
0.00 0.00 0.00 0.00 0.00 0.00 0.00 0.00 0.00 0.00 0.00 0.00 0.00 0.00 0.00 0.00 0.00 0.00 0.00 0.00 0.00 0.00 0.00 0.00 0.00 0.00 0.01 0.01 0.02 0.02 0.02 0.01 0.01 0.00 0.00 0.00 0.00 0.00 0.00 0.00 0.00 0.00 0.00 0.00
0.00 0.00 0.00 0.00 0.00 0.00 0.00 0.00 0.00 0.00 0.00 0.00 0.00 0.00 0.00 0.00 0.00 0.00 0.00 0.00 0.00 0.00 0.00 0.00 0.00 0.00 0.00 0.01 0.01 0.01 0.01 0.01 0.00 0.00 0.00 0.00 0.00 0.00 0.00 0.00 0.00 0.00 0.00 0.00
0.00 0.00 0.00 0.00 0.00 0.00 0.00 0.00 0.00 0.00 0.00 0.00 0.00 0.00 0.00 0.00 0.00 0.00 0.00 0.00 0.00 0.00 0.00 0.00 0.00 0.00 0.00 0.00 0.00 0.00 0.00 0.00 0.00 0.00 0.00 0.00 0.00 0.00 0.00 0.00 0.00 0.00 0.00 0.00
0.00 0.00 0.00 0.00 0.00 0.00 0.00 0.00 0.00 0.00 0.00 0.00 0.00 0.00 0.00 0.00 0.00 0.00 0.00 0.00 0.00 0.00 0.00 0.00 0.00 0.00 0.00 0.00 0.00 0.00 0.00 0.00 0.00 0.00 0.00 0.00 0.00 0.00 0.00 0.00 0.00 0.01 0.00 0.00
0.00 0.00 0.00 0.00 0.00 0.00 0.00 0.00 0.00 0.00 0.00 0.00 0.00 0.00 0.00 0.00 0.00 0.00 0.00 0.00 0.00 0.00 0.00 0.00 0.00 0.00 0.00 0.00 0.00 0.00 0.00 0.00 0.00 0.00 0.00 0.00 0.00 0.00 0.00 0.00 0.00 0.00 0.00 0.00
0.00 0.00 0.00 0.00 0.00 0.00 0.00 0.00 0.00 0.00 0.00 0.00 0.00 0.00 0.00 0.00 0.00 0.00 0.00 0.00 0.00 0.00 0.00 0.00 0.00 0.00 0.00 0.00 0.00 0.00 0.00 0.00 0.00 0.00 0.00 0.00 0.00 0.00 0.00 0.00 0.00 0.00 0.00 0.00
0.00 0.00 0.00 0.00 0.00 0.00 0.00 0.00 0.00 0.00 0.00 0.00 0.00 0.00 0.00 0.00 0.00 0.00 0.00 0.00 0.00 0.00 0.00 0.00 0.00 0.00 0.00 0.00 0.00 0.00 0.00 0.00 0.00 0.00 0.00 0.00 0.00 0.00 0.00 0.00 0.00 0.00 0.00 0.00
0.00 0.00 0.00 0.00 0.00 0.00 0.00 0.00 0.00 0.00 0.00 0.00 0.00 0.00 0.00 0.00 0.00 0.00 0.00 0.00 0.00 0.00 0.00 0.00 0.00 0.00 0.00 0.00 0.00 0.00 0.00 0.00 0.00 0.00 0.00 0.00 0.00 0.00 0.00 0.00 0.00 0.00 0.00 0.00
0.00 0.00 0.00 0.01 0.01 0.01 0.01 0.01 0.01 0.01 0.01 0.00 0.00 0.00 0.00 0.00 0.00 0.00 0.00 0.00 0.00 0.00 0.00 0.00 0.00 0.00 0.00 0.00 0.00 0.00 0.00 0.00 0.00 0.00 0.00 0.00 0.00 0.00 0.00 0.00 0.00 0.00 0.00 0.00
0.01 0.02 0.02 0.02 0.02 0.03 0.03 0.02 0.02 0.01 0.01 0.01 0.01 0.00 0.00 0.00 0.00 0.00 0.00 0.00 0.00 0.00 0.00 0.00 0.00 0.00 0.00 0.00 0.00 0.00 0.00 0.00 0.00 0.00 0.00 0.00 0.00 0.00 0.00 0.00 0.00 0.00 0.00 0.00
0.03 0.04 0.05 0.05 0.04 0.04 0.04 0.04 0.03 0.02 0.02 0.01 0.01 0.01 0.00 0.00 0.00 0.00 0.00 0.00 0.00 0.00 0.00 0.00 0.00 0.00 0.00 0.00 0.00 0.00 0.00 0.00 0.00 0.00 0.00 0.00 0.00 0.00 0.00 0.00 0.00 0.00 0.00 0.00
0.05 0.05 0.06 0.07 0.07 0.06 0.05 0.04 0.03 0.03 0.02 0.01 0.01 0.00 0.00 0.00 0.00 0.00 0.00 0.00 0.00 0.00 0.00 0.00 0.00 0.00 0.00 0.00 0.00 0.00 0.00 0.00 0.00 0.00 0.00 0.00 0.00 0.00 0.00 0.00 0.00 0.00 0.00 0.00
0.08 0.10 0.11 0.12 0.13 0.13 0.12 0.11 0.08 0.06 0.03 0.02 0.01 0.01 0.00 0.00 0.00 0.00 0.00 0.00 0.00 0.00 0.00 0.00 0.00 0.00 0.00 0.00 0.00 0.00 0.00 0.00 0.00 0.00 0.00 0.00 0.00 0.00 0.00 0.00 0.00 0.00 0.00 0.00
0.15 0.19 0.23 0.25 0.27 0.27 0.26 0.24 0.20 0.15 0.10 0.05 0.02 0.01 0.00 0.00 0.00 0.00 0.00 0.00 0.00 0.00 0.00 0.00 0.00 0.00 0.00 0.00 0.00 0.00 0.00 0.00 0.00 0.00 0.00 0.00 0.00 0.00 0.00 0.00 0.00 0.00 0.00 0.00
0.17 0.23 0.28 0.31 0.32 0.32 0.31 0.29 0.26 0.23 0.18 0.12 0.07 0.03 0.01 0.00 0.00 0.00 0.00 0.00 0.00 0.00 0.00 0.00 0.00 0.00 0.00 0.00 0.00 0.00 0.00 0.00 0.00 0.00 0.00 0.00 0.00 0.00 0.00 0.00 0.00 0.00 0.00 0.00
0.08 0.12 0.16 0.20 0.22 0.22 0.21 0.21 0.20 0.19 0.17 0.14 0.09 0.06 0.03 0.01 0.00 0.00 0.00 0.00 0.00 0.00 0.00 0.00 0.00 0.00 0.00 0.00 0.00 0.00 0.00 0.00 0.00 0.00 0.00 0.00 0.00 0.00 0.00 0.00 0.00 0.00 0.00 0.00
0.01 0.02 0.04 0.05 0.06 0.06 0.05 0.06 0.07 0.08 0.08 0.08 0.07 0.05 0.03 0.02 0.00 0.00 0.00 0.00 0.00 0.00 0.00 0.00 0.00 0.00 0.00 0.00 0.00 0.00 0.00 0.00 0.00 0.00 0.00 0.00 0.00 0.00 0.00 0.00 0.00 0.00 0.00 0.00
0.00 0.00 0.00 0.00 0.01 0.01 0.01 0.01 0.02 0.03 0.03 0.03 0.03 0.02 0.02 0.01 0.00 0.00 0.00 0.00 0.00 0.00 0.00 0.00 0.00 0.00 0.00 0.00 0.00 0.00 0.00 0.00 0.00 0.00 0.00 0.00 0.00 0.00 0.00 0.00 0.00 0.00 0.00 0.00
0.00 0.00 0.00 0.00 0.01 0.01 0.01 0.01 0.01 0.01 0.01 0.01 0.01 0.01 0.01 0.01 0.00 0.00 0.00 0.00 0.00 0.00 0.00 0.01 0.01 0.01 0.01 0.00 0.00 0.00 0.00 0.00 0.00 0.00 0.00 0.00 0.00 0.00 0.00 0.00 0.00 0.00 0.00 0.00
0.00 0.00 0.01 0.01 0.02 0.02 0.02 0.01 0.01 0.01 0.00 0.00 0.00 0.00 0.00 0.00 0.00 0.00 0.00 0.00 0.01 0.01 0.01 0.01 0.01 0.01 0.00 0.00 0.00 0.00 0.00 0.00 0.00 0.01 0.01 0.01 0.01 0.01 0.01 0.01 0.01 0.00 0.00 0.00
0.02 0.03 0.04 0.04 0.03 0.03 0.03 0.03 0.02 0.01 0.01 0.00 0.00 0.00 0.00 0.00 0.00 0.00 0.00 0.01 0.01 0.01 0.01 0.01 0.01 0.01 0.01 0.00 0.00 0.00 0.00 0.00 0.00 0.01 0.01 0.01 0.01 0.01 0.01 0.01 0.01 0.01 0.01 0.01
MSLP
1015.88 1016.22 1016.52 1016.76 1016.92 1016.96 1016.87 1016.64 1016.26 1015.75 1015.16 1014.52 1013.88 1013.31 1012.82 1012.45 1012.20 1012.06 1011.99 1011.97 1011.96 1011.92 1011.84 1011.72 1011.57 1011.40 1011.25 1011.14 1011.09 1011.13 1011.24 1011.43 1011.69 1011.99 1012.31 1012.63 1012.93 1013.20 1013.42 1013.60 1013.74 1013.83 1013.88 1013.90
1015.84 1016.04 1016.16 1016.19 1016.12 1015.95 1015.68 1015.31 1014.88 1014.39 1013.87 1013.37 1012.92 1012.54 1012.24 1012.05 1011.93 1011.89 1011.88 1011.89 1011.89 1011.87 1011.80 1011.71 1011.59 1011.46 1011.36 1011.30 1011.29 1011.35 1011.48 1011.67 1011.91 1012.19 1012.49 1012.80 1013.09 1013.36 1013.60 1013.80 1013.97 1014.10 1014.20 1014.27
1015.82 1015.85 1015.77 1015.59 1015.31 1014.94 1014.52 1014.06 1013.58 1013.12 1012.69 1012.32 1012.03 1011.82 1011.69 1011.63 1011.63 1011.66 1011.70 1011.73 1011.75 1011.73 1011.68 1011.61 1011.53 1011.45 1011.40 1011.39 1011.44 1011.54 1011.69 1011.89 1012.13 1012.39 1012.68 1012.97 1013.25 1013.52 1013.77 1013.99 1014.19 1014.36 1014.51 1014.63
1015.81 1015.66 1015.39 1015.01 1014.55 1014.03 1013.48 1012.95 1012.45 1012.02 1011.67 1011.42 1011.26 1011.18 1011.17 1011.22 1011.29 1011.37 1011.44 1011.49 1011.51 1011.50 1011.46 1011.42 1011.39 1011.37 1011.38 1011.43 1011.53 1011.67 1011.85 1012.07 1012.31 1012.57 1012.85 1013.12 1013.40 1013.67 1013.92 1014.16 1014.38 1014.58 1014.76 1014.92
1015.77 1015.44 1014.99 1014.44 1013.83 1013.19 1012.57 1012.00 1011.50 1011.11 1010.83 1010.66 1010.60 1010.62 1010.70 1010.81 1010.93 1011.04 1011.13 1011.18 1011.20 1011.20 1011.19 1011.18 1011.19 1011.23 1011.31 1011.42 1011.57 1011.76 1011.97 1012.21 1012.46 1012.72 1012.99 1013.26 1013.53 1013.79 1014.05 1014.30 1014.53 1014.76 1014.97 1015.16
1015.60 1015.09 1014.49 1013.81 1013.10 1012.39 1011.73 1011.14 1010.67 1010.32 1010.10 1010.01 1010.02 1010.10 1010.24 1010.39 1010.54 1010.67 1010.77 1010.83 1010.86 1010.88 1010.90 1010.93 1010.99 1011.09 1011.21 1011.38 1011.58 1011.81 1012.05 1012.31 1012.58 1012.84 1013.11 1013.38 1013.64 1013.91 1014.17 1014.42 1014.67 1014.90 1015.13 1015.34
1015.18 1014.54 1013.81 1013.04 1012.27 1011.53 1010.86 1010.29 1009.86 1009.56 1009.40 1009.36 1009.43 1009.56 1009.74 1009.93 1010.10 1010.25 1010.37 1010.45 1010.51 1010.57 1010.63 1010.71 1010.81 1010.96 1011.14 1011.35 1011.59 1011.85 1012.12 1012.39 1012.67 1012.94 1013.21 1013.48 1013.75 1014.02 1014.28 1014.54 1014.79 1015.03 1015.26 1015.48
1014.47 1013.71 1012.90 1012.07 1011.27 1010.53 1009.88 1009.36 1008.97 1008.73 1008.62 1008.64 1008.75 1008.93 1009.15 1009.37 1009.58 1009.76 1009.92 1010.05 1010.16 1010.27 1010.38 1010.51 1010.67 1010.86 1011.08 1011.32 1011.59 1011.87 1012.15 1012.44 1012.73 1013.01 1013.29 1013.57 1013.85 1014.12 1014.39 1014.65 1014.90 1015.15 1015.38 1015.60
1013.47 1012.62 1011.75 1010.89 1010.09 1009.37 1008.76 1008.28 1007.95 1007.77 1007.71 1007.78 1007.94 1008.16 1008.41 1008.68 1008.94 1009.18 1009.40 1009.60 1009.78 1009.96 1010.14 1010.33 1010.54 1010.77 1011.02 1011.29 1011.56 1011.85 1012.15 1012.44 1012.74 1013.04 1013.33 1013.62 1013.92 1014.20 1014.48 1014.75 1015.00 1015.25 1015.48 1015.70
1012.28 1011.37 1010.46 1009.59 1008.79 1008.10 1007.53 1007.10 1006.81 1006.67 1006.66 1006.77 1006.96 1007.22 1007.52 1007.84 1008.16 1008.48 1008.78 1009.07 1009.34 1009.60 1009.86 1010.12 1010.38 1010.65 1010.92 1011.20 1011.49 1011.78 1012.07 1012.37 1012.68 1012.99 1013.31 1013.62 1013.93 1014.24 1014.53 1014.81 1015.07 1015.32 1015.55 1015.76
1011.06 1010.11 1009.17 1008.30 1007.51 1006.83 1006.29 1005.89 1005.64 1005.52 1005.53 1005.65 1005.87 1006.16 1006.49 1006.86 1007.25 1007.64 1008.03 1008.41 1008.78 1009.14 1009.48 1009.81 1010.13 1010.44 1010.73 1011.03 1011.32 1011.61 1011.91 1012.21 1012.53 1012.86 1013.19 1013.53 1013.87 1014.20 1014.51 1014.80 1015.08 1015.33 1015.56 1015.77
1010.02 1009.04 1008.09 1007.21 1006.42 1005.75 1005.22 1004.82 1004.56 1004.44 1004.44 1004.55 1004.76 1005.05 1005.41 1005.81 1006.24 1006.70 1007.16 1007.63 1008.09 1008.53 1008.96 1009.36 1009.73 1010.08 1010.40 1010.71 1011.01 1011.31 1011.62 1011.94 1012.27 1012.62 1012.99 1013.35 1013.72 1014.07 1014.40 1014.71 1015.00 1015.25 1015.49 1015.70
1009.31 1008.33 1007.37 1006.49 1005.69 1005.01 1004.46 1004.04 1003.75 1003.58 1003.54 1003.60 1003.77 1004.03 1004.36 1004.75 1005.20 1005.69 1006.20 1006.73 1007.26 1007.77 1008.27 1008.73 1009.15 1009.54 1009.90 1010.24 1010.56 1010.88 1011.21 1011.55 1011.91 1012.29 1012.68 1013.08 1013.47 1013.84 1014.20 1014.52 1014.81 1015.08 1015.31 1015.52
1009.03 1008.05 1007.10 1006.21 1005.41 1004.71 1004.13 1003.66 1003.31 1003.08 1002.95 1002.93 1003.02 1003.20 1003.46 1003.81 1004.23 1004.70 1005.22 1005.77 1006.33 1006.89 1007.43 1007.94 1008.41 1008.85 1009.25 1009.62 1009.98 1010.34 1010.70 1011.07 1011.47 1011.87 1012.30 1012.72 1013.13 1013.53 1013.90 1014.23 1014.52 1014.79 1015.02 1015.23
1009.15 1008.20 1007.27 1006.39 1005.58 1004.86 1004.24 1003.72 1003.29 1002.97 1002.75 1002.61 1002.58 1002.65 1002.81 1003.06 1003.40 1003.81 1004.29 1004.81 1005.37 1005.93 1006.49 1007.03 1007.54 1008.02 1008.47 1008.89 1009.30 1009.70 1010.11 1010.53 1010.96 1011.40 1011.85 1012.30 1012.73 1013.13 1013.50 1013.84 1014.13 1014.39 1014.62 1014.82
1009.54 1008.64 1007.75 1006.90 1006.10 1005.38 1004.73 1004.15 1003.66 1003.24 1002.91 1002.65 1002.49 1002.41 1002.43 1002.55 1002.77 1003.07 1003.46 1003.92 1004.43 1004.97 1005.52 1006.07 1006.60 1007.12 1007.61 1008.09 1008.55 1009.01 1009.47 1009.93 1010.41 1010.88 1011.36 1011.82 1012.25 1012.66 1013.03 1013.35 1013.63 1013.88 1014.09 1014.29
1010.02 1009.19 1008.36 1007.56 1006.80 1006.09 1005.43 1004.83 1004.28 1003.78 1003.34 1002.97 1002.66 1002.44 1002.31 1002.28 1002.35 1002.52 1002.79 1003.14 1003.57 1004.05 1004.56 1005.10 1005.64 1006.18 1006.72 1007.24 1007.76 1008.27 1008.79 1009.30 1009.81 1010.32 1010.81 1011.28 1011.71 1012.11 1012.46 1012.77 1013.03 1013.26 1013.46 1013.65
1010.39 1009.64 1008.89 1008.16 1007.46 1006.78 1006.15 1005.54 1004.96 1004.41 1003.89 1003.42 1002.99 1002.63 1002.36 1002.17 1002.09 1002.12 1002.25 1002.48 1002.81 1003.20 1003.66 1004.17 1004.70 1005.25 1005.81 1006.37 1006.93 1007.50 1008.06 1008.62 1009.16 1009.69 1010.19 1010.66 1011.09 1011.47 1011.80 1012.08 1012.32 1012.53 1012.71 1012.89
1010.50 1009.83 1009.16 1008.51 1007.88 1007.26 1006.66 1006.08 1005.50 1004.93 1004.36 1003.82 1003.31 1002.85 1002.45 1002.14 1001.92 1001.80 1001.80 1001.91 1002.12 1002.43 1002.82 1003.27 1003.77 1004.31 1004.87 1005.46 1006.06 1006.66 1007.26 1007.84 1008.41 1008.96 1009.47 1009.93 1010.35 1010.71 1011.02 1011.28 1011.50 1011.69 1011.86 1012.02
1010.28 1009.67 1009.08 1008.50 1007.94 1007.38 1006.84 1006.29 1005.73 1005.17 1004.59 1004.02 1003.46 1002.93 1002.45 1002.04 1001.71 1001.49 1001.37 1001.37 1001.48 1001.69 1001.99 1002.38 1002.83 1003.35 1003.90 1004.49 1005.10 1005.72 1006.34 1006.95 1007.54 1008.09 1008.61 1009.07 1009.48 1009.83 1010.12 1010.37 1010.57 1010.75 1010.91 1011.06
1009.76 1009.19 1008.64 1008.12 1007.61 1007.11 1006.61 1006.10 1005.57 1005.03 1004.46 1003.89 1003.31 1002.76 1002.24 1001.77 1001.38 1001.08 1000.88 1000.78 1000.80 1000.92 1001.15 1001.46 1001.86 1002.33 1002.85 1003.42 1004.03 1004.65 1005.28 1005.90 1006.50 1007.07 1007.59 1008.06 1008.47 1008.82 1009.11 1009.35 1009.55 1009.72 1009.88 1010.04
1009.03 1008.47 1007.94 1007.43 1006.94 1006.47 1005.99 1005.51 1005.01 1004.49 1003.95 1003.39 1002.83 1002.28 1001.76 1001.28 1000.86 1000.52 1000.26 1000.10 1000.05 1000.10 1000.24 1000.49 1000.82 1001.23 1001.71 1002.24 1002.83 1003.44 1004.06 1004.69 1005.30 1005.88 1006.42 1006.90 1007.32 1007.69 1007.99 1008.25 1008.46 1008.65 1008.82 1008.99
1008.23 1007.64 1007.08 1006.56 1006.05 1005.57 1005.09 1004.61 1004.11 1003.61 1003.09 1002.56 1002.03 1001.51 1001.01 1000.55 1000.13 999.78 999.50 999.31 999.20 999.19 999.27 999.44 999.70 1000.05 1000.47 1000.96 1001.51 1002.10 1002.71 1003.34 1003.96 1004.56 1005.12 1005.63 1006.08 1006.48 1006.82 1007.10 1007.34 1007.56 1007.75 1007.95
1007.46 1006.81 1006.20 1005.62 1005.06 1004.53 1004.01 1003.50 1003.00 1002.49 1001.99 1001.48 1000.99 1000.51 1000.05 999.62 999.24 998.90 998.63 998.41 998.28 998.21 998.24 998.34 998.53 998.81 999.17 999.61 1000.11 1000.68 1001.28 1001.90 1002.54 1003.16 1003.75 1004.30 1004.80 1005.24 1005.62 1005.95 1006.23 1006.49 1006.72 1006.95
1006.79 1006.06 1005.37 1004.71 1004.07 1003.47 1002.88 1002.32 1001.78 1001.26 1000.75 1000.27 999.80 999.37 998.96 998.58 998.24 997.94 997.68 997.46 997.31 997.21 997.18 997.23 997.36 997.57 997.87 998.25 998.72 999.25 999.84 1000.46 1001.11 1001.75 1002.38 1002.98 1003.52 1004.02 1004.45 1004.83 1005.17 1005.48 1005.76 1006.03
1006.21 1005.40 1004.62 1003.87 1003.14 1002.44 1001.78 1001.15 1000.56 1000.01 999.49 999.02 998.59 998.19 997.83 997.51 997.21 996.95 996.72 996.51 996.35 996.23 996.17 996.17 996.24 996.40 996.64 996.97 997.40 997.90 998.47 999.10 999.76 1000.43 1001.09 1001.73 1002.32 1002.87 1003.36 1003.80 1004.19 1004.55 1004.88 1005.21
1005.67 1004.79 1003.93 1003.09 1002.27 1001.49 1000.74 1000.05 999.40 998.82 998.29 997.82 997.41 997.06 996.74 996.47 996.22 996.00 995.79 995.61 995.45 995.32 995.24 995.20 995.23 995.35 995.55 995.84 996.23 996.71 997.27 997.90 998.57 999.26 999.95 1000.62 1001.26 1001.85 1002.39 1002.88 1003.32 1003.73 1004.11 1004.49
Thickness
5660 5664 5661 5659 5658 5648 5636 5634 5628 5635 5636 5648 5652 5650 5649 5645 5640 5634 5630 5626 5621 5617 5612 5609 5608 5609 5611 5614 5618 5620 5622 5623 5623 5625 5625 5625 5625 5625 5624 5623 5622 5621 5621 5621
5656 5662 5655 5653 5658 5653 5645 5641 5634 5636 5639 5654 5650 5648 5645 5642 5637 5631 5627 5624 5620 5615 5611 5608 5606 5606 5607 5609 5611 5614 5614 5615 5616 5616 5617 5617 5617 5616 5614 5612 5611 5611 5611 5611
5637 5649 5648 5641 5655 5653 5647 5647 5641 5636 5646 5653 5649 5645 5642 5640 5636 5630 5627 5623 5619 5615 5611 5608 5606 5605 5605 5605 5606 5607 5608 5608 5608 5609 5609 5609 5609 5607 5605 5603 5602 5601 5600 5600
5628 5633 5624 5648 5664 5658 5650 5651 5648 5647 5649 5649 5647 5646 5643 5640 5636 5631 5628 5624 5619 5615 5611 5608 5606 5604 5603 5602 5602 5602 5602 5602 5601 5602 5601 5600 5600 5598 5596 5595 5594 5592 5592 5591
5617 5617 5628 5648 5660 5655 5645 5645 5653 5647 5649 5648 5645 5641 5639 5642 5638 5634 5630 5625 5620 5615 5611 5607 5604 5602 5600 5599 5598 5598 5597 5596 5596 5596 5595 5594 5593 5591 5589 5588 5587 5585 5583 5583
5616 5616 5617 5644 5664 5664 5650 5638 5654 5648 5646 5642 5634 5626 5634 5644 5640 5635 5630 5624 5619 5614 5609 5605 5603 5600 5598 5596 5595 5594 5594 5593 5591 5590 5590 5589 5587 5586 5584 5583 5581 5579 5576 5574
5617 5612 5628 5653 5661 5655 5632 5635 5655 5650 5646 5638 5631 5637 5642 5643 5639 5634 5629 5624 5619 5613 5608 5605 5602 5598 5596 5594 5593 5592 5591 5589 5587 5586 5584 5583 5582 5581 5579 5577 5574 5572 5569 5567
5615 5611 5625 5659 5653 5643 5644 5654 5653 5650 5646 5640 5639 5640 5637 5635 5634 5630 5626 5623 5618 5612 5607 5604 5601 5598 5595 5593 5592 5590 5587 5585 5583 5581 5580 5579 5578 5576 5575 5572 5569 5566 5564 5561
5628 5635 5651 5655 5653 5656 5653 5649 5650 5648 5647 5642 5638 5636 5634 5631 5629 5627 5624 5621 5617 5612 5608 5603 5600 5598 5595 5593 5590 5587 5584 5581 5579 5577 5576 5575 5574 5572 5570 5567 5565 5562 5560 5558
5630 5640 5647 5651 5652 5653 5652 5649 5651 5650 5647 5642 5637 5635 5631 5628 5626 5624 5621 5618 5614 5610 5606 5603 5601 5598 5596 5593 5590 5586 5583 5579 5577 5575 5573 5572 5571 5569 5567 5565 5562 5560 5557 5554
5629 5640 5643 5649 5650 5653 5653 5652 5649 5649 5646 5642 5637 5634 5630 5627 5625 5623 5620 5616 5612 5609 5607 5605 5602 5598 5596 5593 5589 5586 5582 5578 5575 5573 5571 5569 5567 5565 5565 5563 5562 5559 5556 5552
5636 5645 5639 5643 5651 5652 5648 5647 5647 5645 5643 5642 5638 5635 5631 5628 5625 5622 5618 5614 5610 5607 5606 5604 5601 5598 5595 5592 5589 5585 5581 5577 5574 5571 5568 5565 5563 5560 5558 5558 5557 5555 5552 5549
5641 5648 5645 5646 5649 5649 5645 5645 5646 5643 5642 5640 5639 5636 5632 5628 5624 5620 5616 5613 5611 5608 5606 5602 5599 5596 5594 5591 5588 5585 5581 5577 5573 5570 5567 5563 5561 5559 5556 5552 5551 5549 5547 5544
5634 5635 5635 5640 5642 5645 5643 5643 5643 5641 5641 5640 5639 5635 5631 5627 5622 5618 5616 5615 5612 5608 5604 5600 5597 5595 5593 5589 5586 5583 5579 5576 5572 5569 5566 5562 5559 5556 5554 5552 5548 5544 5541 5538
5619 5620 5622 5627 5630 5632 5633 5634 5633 5634 5635 5636 5635 5632 5629 5625 5622 5620 5619 5615 5609 5604 5600 5597 5594 5592 5590 5586 5583 5579 5576 5573 5570 5567 5564 5560 5557 5553 5550 5548 5545 5542 5538 5535
5599 5601 5603 5605 5607 5610 5613 5616 5617 5621 5625 5627 5629 5629 5628 5626 5624 5621 5617 5611 5605 5602 5599 5596 5593 5592 5587 5583 5579 5576 5573 5571 5568 5564 5561 5558 5554 5551 5547 5544 5541 5539 5537 5535
5579 5580 5580 5581 5583 5585 5587 5590 5594 5599 5605 5612 5617 5621 5621 5619 5616 5614 5612 5609 5607 5605 5602 5597 5594 5590 5585 5581 5577 5574 5570 5568 5565 5562 5559 5556 5553 5550 5547 5544 5541 5538 5538 5536
5556 5556 5556 5557 5560 5563 5567 5570 5573 5576 5581 5590 5599 5606 5608 5609 5609 5609 5608 5605 5601 5600 5599 5598 5594 5589 5584 5579 5575 5572 5568 5564 5562 5559 5556 5553 5551 5549 5546 5543 5541 5539 5537 5534
5546 5546 5546 5546 5547 5547 5548 5551 5553 5556 5560 5567 5577 5586 5593 5597 5600 5602 5601 5599 5597 5596 5598 5596 5591 5588 5584 5580 5575 5570 5566 5562 5558 5555 5553 5551 5548 5546 5543 5541 5539 5538 5536 5533
5536 5536 5536 5536 5537 5537 5537 5539 5541 5543 5545 5549 5557 5568 5576 5582 5587 5590 5591 5592 5596 5599 5599 5594 5589 5586 5584 5581 5575 5571 5566 5562 5558 5554 5550 5548 5546 5544 5542 5540 5539 5537 5535 5534
5521 5522 5522 5522 5523 5524 5525 5527 5530 5534 5536 5539 5544 5552 5560 5568 5574 5579 5582 5586 5592 5594 5594 5591 5588 5586 5584 5581 5575 5572 5567 5563 5558 5554 5550 5547 5545 5543 5541 5540 5538 5537 5536 5534
5501 5501 5501 5502 5503 5505 5509 5512 5516 5522 5527 5531 5537 5542 5548 5556 5563 5569 5575 5581 5588 5590 5590 5590 5589 5588 5586 5581 5577 5573 5569 5565 5560 5555 5551 5548 5545 5543 5541 5540 5538 5538 5537 5535
5481 5480 5479 5479 5480 5483 5488 5493 5499 5505 5513 5519 5526 5533 5540 5547 5554 5560 5569 5576 5581 5584 5586 5588 5589 5587 5583 5580 5577 5574 5571 5567 5563 5558 5554 5550 5547 5544 5543 5541 5540 5539 5538 5536
5462 5461 5461 5461 5461 5463 5467 5474 5479 5487 5496 5504 5513 5522 5530 5538 5547 5555 5563 5570 5574 5578 5581 5584 5585 5584 5580 5580 5578 5575 5572 5569 5565 5561 5557 5553 5550 5547 5545 5543 5541 5540 5539 5537
5449 5448 5447 5447 5447 5450 5453 5457 5463 5471 5479 5490 5500 5510 5519 5529 5539 5549 5556 5563 5568 5571 5576 5580 5580 5580 5580 5580 5579 5577 5575 5572 5569 5564 5560 5555 5552 5550 5547 5545 5544 5542 5540 5538
5441 5440 5441 5440 5441 5442 5445 5448 5453 5460 5468 5477 5489 5499 5509 5520 5530 5540 5549 5556 5562 5566 5570 5575 5579 5578 5580 5581 5580 5580 5577 5574 5569 5565 5562 5558 5555 5552 5549 5547 5545 5543 5541 5538
5440 5440 5441 5443 5444 5444 5445 5447 5450 5455 5461 5468 5480 5490 5500 5511 5522 5532 5541 5549 5556 5561 5566 5571 5576 5579 5581 5582 5582 5581 5578 5575 5572 5568 5565 5561 5557 5554 5551 5548 5546 5544 5541 5538